TimeEDT,TemperatureF,Dew PointF,Humidity,Sea Level PressureIn,VisibilityMPH,Wind Direction,Wind SpeedMPH,Gust SpeedMPH,PrecipitationIn,Events,Conditions,WindDirDegrees,DateUTC
12:53 AM,30.9,18.0,59,30.14,10.0,NNW,5.8,-,N/A,,Clear,340,2013-04-02 04:53:00
1:53 AM,30.9,18.0,59,30.16,10.0,Calm,Calm,-,N/A,,Clear,0,2013-04-02 05:53:00
2:53 AM,28.9,19.0,67,30.17,10.0,NW,3.5,-,N/A,,Clear,320,2013-04-02 06:53:00
3:53 AM,28.9,17.1,61,30.16,10.0,WNW,4.6,-,N/A,,Clear,290,2013-04-02 07:53:00
4:53 AM,28.9,17.1,61,30.17,10.0,WNW,5.8,-,N/A,,Clear,290,2013-04-02 08:53:00
5:53 AM,28.0,17.1,63,30.19,10.0,WNW,6.9,-,N/A,,Clear,300,2013-04-02 09:53:00
6:53 AM,28.0,17.1,63,30.21,10.0,West,4.6,-,N/A,,Clear,280,2013-04-02 10:53:00
7:53 AM,28.0,18.0,66,30.23,10.0,WNW,4.6,-,N/A,,Clear,290,2013-04-02 11:53:00
8:53 AM,30.9,19.9,64,30.26,10.0,NW,5.8,-,N/A,,Clear,310,2013-04-02 12:53:00
9:53 AM,34.0,19.9,56,30.27,10.0,NNW,5.8,-,N/A,,Clear,340,2013-04-02 13:53:00
10:53 AM,37.9,17.1,43,30.28,10.0,North,6.9,-,N/A,,Clear,360,2013-04-02 14:53:00
11:53 AM,39.9,17.1,40,30.28,10.0,West,8.1,-,N/A,,Clear,280,2013-04-02 15:53:00
12:53 PM,39.9,14.0,35,30.26,10.0,West,5.8,-,N/A,,Clear,280,2013-04-02 16:53:00
1:53 PM,43.0,14.0,31,30.25,10.0,West,10.4,-,N/A,,Clear,270,2013-04-02 17:53:00
2:53 PM,45.0,12.9,27,30.23,10.0,WNW,10.4,18.4,N/A,,Clear,300,2013-04-02 18:53:00
3:53 PM,46.0,15.1,29,30.20,10.0,NNW,13.8,19.6,N/A,,Clear,340,2013-04-02 19:53:00
4:53 PM,46.0,14.0,28,30.20,10.0,NNW,9.2,19.6,N/A,,Clear,330,2013-04-02 20:53:00
5:53 PM,46.0,14.0,28,30.21,10.0,WNW,10.4,18.4,N/A,,Clear,290,2013-04-02 21:53:00
6:53 PM,45.0,14.0,29,30.22,10.0,NNW,9.2,-,N/A,,Clear,330,2013-04-02 22:53:00
7:53 PM,42.1,15.1,34,30.23,10.0,NW,9.2,-,N/A,,Clear,310,2013-04-02 23:53:00
8:53 PM,37.0,17.1,44,30.24,10.0,WNW,4.6,-,N/A,,Clear,300,2013-04-03 00:53:00
9:53 PM,39.0,16.0,39,30.25,10.0,West,3.5,-,N/A,,Clear,270,2013-04-03 01:53:00
10:53 PM,36.0,17.1,46,30.26,10.0,Calm,Calm,-,N/A,,Clear,0,2013-04-03 02:53:00
11:53 PM,34.0,17.1,50,30.26,10.0,Calm,Calm,-,N/A,,Clear,0,2013-04-03 03:53:00